Temperature
23 25 26 26 27 27 25 23 23 24 24 24 24 24 24 25 24 24 24 24 23 24 23 23 23 22 22 21 21 21 20 19 19 19 18 18 17 17 17 16 16 16 16 16
23 25 26 26 26 27 26 26 25 25 24 23 24 25 24 24 24 23 23 23 23 23 23 23 23 22 22 21 21 20 20 20 19 18 18 17 17 17 16 16 16 16 15 15
21 23 24 24 25 26 26 25 25 24 24 23 23 23 23 24 24 24 24 23 23 23 23 23 23 22 22 21 21 20 20 19 19 18 18 17 17 16 16 16 16 15 15 15
19 22 23 22 23 25 25 25 24 24 23 23 23 24 24 25 24 24 24 24 24 24 23 23 22 22 22 21 20 20 19 19 19 18 18 17 17 16 16 16 15 15 15 15
18 20 21 23 24 24 24 23 23 23 23 23 24 23 23 24 25 25 25 25 24 24 24 23 22 22 21 20 20 20 19 19 19 18 17 17 17 16 16 15 15 15 15 14
18 20 21 21 23 25 24 22 23 23 22 23 23 21 21 24 24 25 25 24 24 23 23 22 22 21 21 20 20 19 19 19 18 18 17 17 16 16 15 15 15 14 14 14
18 19 19 21 22 24 22 21 22 23 23 23 22 22 24 24 24 24 24 24 23 23 22 22 22 21 21 20 20 20 19 19 18 17 17 16 16 15 15 15 15 14 14 14
16 18 19 20 21 21 20 21 22 23 23 23 23 23 23 24 23 24 23 23 23 22 22 22 21 21 20 20 20 19 19 18 18 17 16 16 15 15 15 14 14 14 14 14
16 17 18 20 20 21 22 21 22 23 23 23 23 22 22 23 22 22 22 22 22 22 21 21 21 20 20 20 19 18 18 18 17 17 16 16 15 15 15 14 14 14 14 13
16 17 18 20 21 21 21 22 22 22 23 23 22 22 22 22 22 22 22 21 21 21 20 20 20 20 20 19 18 18 18 17 17 16 16 16 15 15 15 14 14 14 13 13
15 16 18 20 20 21 21 21 21 22 22 22 22 21 21 21 21 21 21 20 20 20 20 19 19 19 19 18 18 18 17 17 16 16 16 15 15 15 14 14 14 14 13 13
15 16 16 18 19 20 20 20 21 21 21 21 21 21 21 21 20 20 20 20 20 19 19 19 19 18 18 18 18 17 17 17 16 16 15 15 15 14 14 14 13 13 13 13
17 18 18 18 19 19 20 19 20 20 20 20 20 20 20 20 20 19 19 19 19 19 19 19 18 18 18 17 17 17 17 17 16 16 15 15 15 14 14 14 13 13 13 13
18 18 17 18 18 19 19 19 19 19 19 19 19 19 19 19 19 19 19 18 18 18 18 18 18 18 17 17 17 17 17 16 16 16 15 15 15 14 14 14 14 13 13 12
17 18 17 17 18 18 18 18 18 18 19 19 19 19 19 19 18 18 18 18 18 18 18 18 18 17 17 17 16 16 16 16 16 15 15 15 14 14 14 14 13 13 13 13
17 17 17 17 17 17 18 18 18 18 18 18 18 18 18 18 18 18 17 17 17 17 17 17 17 17 17 17 16 16 16 16 15 15 15 14 14 14 14 13 13 13 13 13
17 16 16 16 16 17 17 17 17 17 17 17 17 17 17 17 17 17 17 17 17 17 17 17 17 17 16 16 16 15 15 15 15 14 14 14 14 14 14 13 13 13 13 12
17 16 16 16 16 16 16 16 17 17 17 17 16 16 16 16 16 16 16 16 16 16 16 16 16 16 16 16 15 15 15 15 14 14 14 14 14 13 13 13 13 13 13 12
16 16 16 16 16 16 16 16 16 16 16 16 16 16 15 15 15 15 15 15 15 15 15 15 15 15 15 15 15 14 14 14 14 14 13 13 13 13 13 13 13 13 13 12
15 15 15 15 15 15 15 15 15 15 15 15 15 15 15 15 15 15 15 15 15 15 15 15 15 15 14 14 14 14 14 14 13 13 13 13 13 13 13 13 13 13 13 12
14 15 15 15 14 14 14 14 14 14 14 14 14 14 14 14 14 14 14 14 14 14 14 14 14 14 14 14 14 14 13 13 13 13 13 13 13 13 13 13 13 13 13 12
14 14 14 14 14 14 14 14 14 14 14 14 14 14 14 13 14 13 13 14 14 14 14 14 14 14 14 14 13 13 13 13 13 13 13 13 13 13 13 13 13 13 12 12
13 13 13 13 13 13 13 13 13 13 13 13 13 13 13 13 13 13 13 13 13 13 13 13 13 13 13 13 13 13 13 13 13 13 13 13 13 13 13 13 12 12 12 12
13 13 13 13 13 13 13 12 12 12 12 12 13 13 13 13 13 13 13 13 13 13 13 13 13 13 13 13 13 13 13 13 13 13 13 13 13 12 12 12 12 12 12 12
12 12 12 12 12 12 12 12 12 12 12 12 12 12 12 12 12 12 12 12 12 12 12 13 12 12 12 13 13 12 12 12 13 12 12 12 12 12 12 12 12 12 11 11
12 11 12 12 11 11 11 11 11 11 11 11 11 12 12 12 12 12 12 12 12 12 12 12 12 12 12 12 12 12 12 12 12 12 12 12 12 12 12 12 11 11 11 11
11 11 11 11 11 11 11 11 11 11 11 11 11 11 11 11 11 11 11 12 12 12 12 12 12 12 12 12 12 12 12 12 12 12 12 12 12 11 11 11 11 11 10 10
Wind_Speed
5 4 2 3 5 4 4 8 9 9 9 10 11 12 12 12 11 11 12 12 14 14 13 12 12 11 11 10 9 10 9 9 8 6 6 5 6 6 6 6 7 6 6 6
3 2 2 4 6 5 4 4 5 5 6 7 8 8 9 12 14 13 13 13 13 13 13 13 13 12 11 11 10 10 10 9 8 7 7 6 6 6 7 6 6 6 6 6
2 4 4 5 5 3 3 3 6 6 7 5 7 10 12 12 13 14 14 12 13 13 13 13 13 12 13 12 10 10 10 9 9 8 8 7 7 7 7 6 6 6 5 6
1 2 4 9 4 1 1 2 3 4 4 7 9 10 9 9 11 11 12 12 12 12 11 10 10 11 11 11 11 11 10 9 9 9 9 8 7 7 6 5 5 5 5 5
3 2 5 7 4 1 1 3 2 3 4 5 7 7 2 4 8 10 11 11 10 11 11 11 13 13 12 11 10 10 10 10 10 10 9 8 8 7 6 6 5 4 4 4
4 4 6 7 7 3 4 2 5 1 4 6 7 6 4 4 5 7 7 8 9 9 10 11 13 14 14 13 12 11 11 10 10 9 9 8 8 6 5 6 5 5 4 3
4 4 6 5 8 3 3 6 5 0 3 4 4 7 6 5 5 6 7 7 10 11 11 11 12 14 13 13 12 11 10 10 9 9 9 8 7 6 6 6 6 5 4 3
4 3 6 6 3 2 5 4 2 1 2 4 4 4 6 6 6 7 8 8 10 10 9 10 12 13 12 11 10 10 10 10 9 9 8 7 8 6 6 6 6 5 4 3
6 6 5 3 2 3 3 2 1 1 2 5 5 5 6 6 7 7 8 8 8 10 9 9 10 12 12 9 10 11 11 10 9 8 7 7 8 8 6 6 5 4 4 3
1 2 2 1 1 2 2 1 1 2 4 5 6 5 6 7 7 7 7 7 7 9 10 9 9 9 10 10 11 12 11 10 9 8 7 6 6 6 6 6 5 5 5 4
0 1 3 3 3 3 4 4 5 5 5 5 6 6 6 6 6 7 8 6 6 8 9 9 9 8 9 11 12 11 10 9 8 8 8 6 4 3 4 4 6 7 6 6
4 5 3 3 3 2 4 4 5 7 7 5 5 5 6 6 5 6 7 6 7 8 8 8 8 8 9 11 12 12 10 9 8 7 6 6 6 4 4 2 2 6 7 7
5 4 3 2 2 3 3 3 4 6 6 5 5 5 5 4 4 5 5 5 7 9 8 8 8 8 8 10 11 12 10 10 8 8 7 7 6 6 4 2 4 2 6 9
3 3 2 0 0 2 3 3 5 6 5 5 5 5 5 4 4 5 4 4 5 7 8 8 8 8 8 9 10 10 9 10 9 8 8 8 7 6 6 6 4 1 1 5
2 3 3 2 1 2 3 3 5 5 5 5 5 5 5 5 3 3 3 4 5 6 7 7 7 7 7 8 9 9 9 8 8 7 7 7 7 6 6 6 5 4 2 2
2 3 3 3 0 1 2 2 3 3 3 3 3 4 4 3 3 2 2 4 6 7 7 7 7 7 7 8 9 8 7 10 9 7 7 7 7 6 6 6 6 6 6 5
4 3 2 1 1 1 1 2 2 2 3 3 2 2 3 3 3 2 1 2 4 5 5 6 6 7 8 8 8 7 6 8 10 8 7 8 7 7 7 7 6 6 6 7
4 4 4 4 3 2 1 2 2 2 2 3 3 4 4 3 2 1 1 1 2 2 3 4 5 5 7 8 7 6 6 6 6 7 7 7 7 7 7 7 7 7 5 5
3 3 2 2 3 3 3 2 2 2 2 3 3 3 3 2 3 2 2 2 4 3 3 3 5 6 6 6 7 5 6 6 5 5 6 8 8 7 7 7 7 7 7 6
3 3 2 2 2 3 2 2 2 1 1 2 3 2 2 1 2 1 2 2 3 4 4 4 5 5 6 6 7 5 6 6 7 6 6 6 7 7 7 7 8 7 7 7
1 2 2 2 2 2 2 2 2 2 1 2 2 2 2 1 2 2 1 1 2 2 2 4 4 4 5 6 7 6 6 6 7 7 6 6 7 7 7 7 7 7 8 7
1 1 2 2 2 1 1 1 1 1 1 1 1 1 2 2 2 1 2 3 2 2 2 2 2 4 5 6 5 5 6 6 6 6 6 6 6 7 7 7 7 7 7 7
1 2 2 2 2 2 2 2 1 1 1 0 1 2 2 3 3 3 2 2 2 2 2 2 3 4 5 5 4 5 5 5 5 6 6 6 6 7 7 7 7 7 7 7
1 1 1 1 2 2 1 1 0 1 1 1 2 2 2 2 1 2 2 3 3 2 1 2 4 4 4 3 3 4 5 5 5 5 6 6 5 6 6 6 6 6 7 8
0 0 1 2 2 1 1 1 0 1 1 1 1 1 1 2 2 2 1 2 3 3 1 2 4 4 3 2 3 3 3 4 4 4 4 4 5 5 5 5 6 6 6 6
0 0 1 1 1 1 1 0 0 0 0 1 1 1 1 0 1 1 1 1 2 2 2 1 2 2 2 2 2 2 2 3 3 4 4 4 5 6 5 5 6 5 5 5
2 1 1 1 1 0 0 1 1 0 0 1 1 1 1 0 1 1 0 1 1 1 1 1 1 2 2 1 1 2 2 2 3 3 3 4 4 5 5 6 6 5 6 6
Wind_Direction
210 216 216 256 265 245 192 185 185 212 198 207 196 180 172 162 154 155 160 165 169 169 170 171 168 165 162 162 159 155 150 149 151 147 137 125 114 108 102 98 98 90 84 73
336 342 2 304 280 255 225 196 193 182 215 219 188 158 148 153 155 160 166 168 170 168 168 170 170 166 162 164 160 153 153 154 148 139 133 125 115 109 102 96 92 87 82 80
296 323 17 284 255 244 232 214 176 191 218 182 158 170 169 164 162 165 168 168 170 171 172 172 173 167 164 162 155 152 153 151 147 145 142 137 129 117 111 106 100 93 84 80
131 42 231 245 260 184 188 265 189 178 186 171 171 176 171 165 165 167 169 171 173 171 167 166 164 157 153 150 150 151 152 152 151 149 144 138 130 127 122 115 110 105 96 86
125 184 266 292 319 22 116 324 335 151 152 145 127 106 117 182 170 173 176 175 171 168 158 156 156 153 147 146 148 150 154 155 154 149 145 141 138 136 130 122 115 113 111 98
140 169 223 256 294 300 105 320 318 87 154 147 117 134 210 205 167 153 155 160 156 151 143 149 155 151 149 154 157 161 162 158 152 149 148 149 146 141 133 131 127 123 111 107
171 205 247 273 303 22 126 232 284 348 158 159 161 183 187 167 151 141 138 144 147 146 150 154 153 150 155 160 167 165 157 149 147 149 151 149 143 139 140 138 129 129 122 109
158 190 250 306 5 135 206 226 258 107 115 131 145 137 127 133 138 135 131 134 140 142 146 150 148 153 159 167 163 152 148 147 150 151 154 150 142 141 145 145 140 140 131 113
182 209 241 284 185 206 175 165 189 122 125 128 126 123 126 133 145 143 140 139 140 139 141 147 154 158 161 164 151 148 147 151 153 151 146 147 149 153 155 155 156 161 155 153
117 250 263 339 55 38 54 89 62 104 117 108 114 125 131 140 146 139 136 135 137 140 143 151 158 158 160 155 150 149 151 152 153 151 147 147 151 157 161 167 170 171 168 169
181 262 9 3 22 49 38 38 55 61 88 108 114 117 121 130 138 139 136 141 147 154 155 160 160 156 155 152 150 149 151 153 155 154 153 150 140 139 165 181 189 181 182 175
217 229 187 239 292 27 50 48 71 76 71 75 94 107 114 120 124 131 137 141 145 152 154 156 154 154 156 156 155 154 155 157 160 160 156 152 143 115 60 93 154 184 179 172
212 222 184 208 303 35 58 60 76 91 96 83 69 85 97 110 121 127 131 143 159 161 157 156 156 159 162 162 162 162 164 166 166 166 164 164 162 159 152 60 53 115 173 174
193 123 85 37 290 21 58 66 78 83 80 84 84 81 81 95 110 122 143 156 162 156 154 155 159 166 170 165 165 166 166 170 171 172 172 172 174 174 171 170 171 188 206 183
182 155 167 160 16 26 61 80 82 76 74 69 74 82 89 95 117 139 153 155 150 151 158 159 164 172 169 167 168 169 168 172 174 173 173 174 173 172 174 176 174 174 172 188
150 100 103 101 83 302 50 87 104 96 93 93 86 86 93 103 108 106 134 156 161 171 177 174 177 179 169 169 172 174 179 176 173 175 175 174 175 177 180 181 178 180 187 184
136 133 124 140 184 152 170 170 156 137 118 106 112 113 100 96 94 99 115 184 174 174 175 176 183 177 169 171 173 177 179 180 178 178 183 183 182 184 186 185 187 192 198 192
152 156 155 160 155 138 135 122 119 123 129 125 110 107 110 118 130 154 205 166 136 137 173 176 177 175 174 175 176 175 174 176 183 188 187 187 188 189 187 188 193 196 199 193
129 120 118 119 142 145 139 123 134 142 143 129 118 128 141 157 162 173 176 170 163 186 220 191 174 178 180 182 175 173 177 180 183 190 188 186 188 190 191 192 196 199 195 186
71 94 95 93 114 132 132 124 122 116 131 134 130 120 128 172 159 164 158 177 194 198 195 185 172 179 185 186 179 185 189 190 192 192 189 188 191 195 198 198 197 196 194 194
64 79 87 95 105 113 130 151 153 150 124 113 144 168 168 168 160 164 167 232 273 223 181 179 180 185 191 192 186 191 195 197 197 195 194 194 195 197 198 199 198 196 195 196
69 91 98 101 109 94 47 96 139 145 118 95 96 148 153 177 177 180 217 222 235 222 187 184 194 196 194 190 192 193 196 199 202 200 198 198 198 198 199 198 196 194 193 192
67 95 102 106 114 95 44 40 65 123 142 187 230 224 214 215 198 187 234 244 201 190 188 200 200 192 193 197 197 198 201 205 208 206 203 201 200 198 197 195 192 188 186 184
48 96 118 116 99 94 83 313 320 283 269 271 261 238 210 201 235 223 199 191 182 174 189 205 201 201 205 211 208 209 211 210 207 203 200 197 195 193 189 186 184 182 180 176
40 123 122 111 110 164 204 211 61 21 3 337 316 304 260 191 194 205 179 173 175 163 185 218 209 203 204 213 209 209 215 212 200 189 182 178 178 178 178 178 175 171 172 171
180 170 181 177 176 182 205 159 159 271 59 17 340 343 348 358 154 160 156 170 171 178 184 200 199 197 194 194 200 196 190 176 172 168 170 171 166 164 162 163 160 161 161 162
61 59 59 45 12 331 130 127 133 273 230 186 273 303 301 328 15 29 80 123 160 177 175 178 158 144 143 133 104 101 103 105 114 123 129 136 143 146 148 146 146 144 144 145
Height
1496 1491 1489 1491 1491 1490 1498 1505 1513 1509 1506 1499 1494 1494 1495 1498 1502 1505 1508 1511 1514 1517 1520 1523 1527 1530 1533 1535 1538 1540 1541 1543 1544 1545 1546 1546 1546 1546 1546 1546 1546 1546 1545 1545
1496 1489 1488 1491 1488 1487 1489 1492 1495 1496 1498 1488 1489 1491 1494 1497 1500 1503 1505 1509 1512 1515 1518 1521 1525 1527 1531 1533 1536 1538 1540 1542 1543 1544 1545 1546 1546 1546 1546 1546 1546 1546 1546 1545
1508 1496 1493 1501 1490 1487 1488 1486 1489 1496 1492 1486 1490 1491 1492 1494 1497 1499 1503 1506 1509 1512 1516 1519 1523 1526 1529 1532 1535 1537 1539 1541 1542 1543 1544 1545 1545 1545 1545 1546 1546 1546 1546 1546
1511 1505 1514 1499 1482 1481 1483 1483 1482 1483 1483 1483 1484 1487 1489 1491 1494 1497 1500 1503 1506 1510 1513 1517 1521 1524 1528 1530 1533 1535 1537 1539 1540 1541 1542 1543 1544 1544 1545 1545 1546 1546 1546 1546
1516 1516 1508 1491 1482 1482 1485 1488 1481 1482 1482 1483 1484 1487 1491 1492 1492 1494 1497 1500 1503 1507 1510 1515 1518 1522 1526 1528 1531 1533 1535 1537 1538 1540 1541 1542 1542 1543 1544 1545 1545 1546 1546 1546
1512 1514 1516 1497 1481 1477 1481 1493 1482 1481 1481 1482 1483 1493 1493 1491 1492 1494 1496 1499 1502 1505 1508 1511 1516 1519 1523 1525 1528 1531 1533 1535 1537 1538 1540 1541 1542 1543 1544 1544 1545 1546 1546 1546
1510 1511 1503 1487 1479 1477 1496 1497 1483 1481 1481 1482 1483 1485 1487 1488 1490 1492 1494 1497 1500 1504 1506 1508 1512 1516 1520 1523 1525 1528 1531 1533 1535 1537 1539 1540 1541 1542 1543 1544 1544 1545 1545 1545
1509 1512 1506 1483 1481 1485 1487 1482 1482 1480 1480 1481 1482 1483 1484 1486 1489 1491 1493 1496 1499 1501 1504 1507 1510 1513 1517 1521 1524 1527 1529 1531 1534 1536 1537 1539 1540 1541 1542 1543 1544 1544 1544 1545
1499 1499 1488 1483 1482 1481 1481 1481 1480 1480 1480 1481 1481 1482 1484 1486 1488 1491 1493 1495 1498 1501 1504 1506 1508 1511 1515 1519 1522 1525 1527 1529 1532 1534 1536 1537 1538 1539 1540 1542 1543 1543 1544 1544
1492 1488 1484 1482 1481 1481 1481 1480 1480 1479 1480 1480 1481 1482 1484 1485 1488 1490 1492 1495 1497 1500 1502 1505 1507 1511 1514 1517 1520 1522 1525 1527 1530 1532 1534 1535 1537 1538 1539 1540 1541 1542 1542 1543
1491 1487 1484 1483 1482 1482 1482 1481 1480 1480 1480 1481 1481 1482 1483 1484 1487 1489 1491 1494 1497 1499 1501 1504 1506 1509 1512 1515 1517 1520 1522 1525 1527 1530 1532 1533 1535 1536 1537 1538 1539 1540 1540 1541
1491 1486 1485 1485 1484 1484 1483 1481 1481 1480 1481 1482 1482 1482 1483 1485 1487 1489 1491 1493 1495 1498 1500 1502 1505 1507 1510 1512 1515 1517 1519 1522 1525 1527 1529 1530 1532 1534 1535 1536 1537 1538 1538 1539
1483 1482 1482 1482 1483 1483 1483 1483 1482 1481 1481 1481 1482 1483 1484 1486 1488 1490 1492 1494 1495 1496 1498 1501 1503 1505 1507 1510 1513 1515 1517 1519 1521 1523 1525 1527 1529 1531 1532 1533 1534 1535 1536 1537
1480 1481 1481 1482 1483 1482 1483 1483 1482 1483 1482 1482 1483 1484 1485 1486 1488 1489 1491 1493 1495 1496 1497 1499 1501 1503 1506 1508 1511 1513 1515 1517 1519 1520 1522 1524 1526 1528 1529 1530 1531 1532 1534 1535
1480 1480 1480 1481 1481 1482 1482 1483 1483 1483 1483 1483 1483 1484 1485 1486 1488 1489 1490 1492 1494 1495 1496 1498 1500 1502 1504 1506 1508 1510 1512 1514 1517 1518 1520 1521 1523 1525 1527 1528 1529 1529 1530 1532
1479 1479 1479 1479 1480 1480 1480 1482 1482 1482 1483 1483 1484 1484 1485 1487 1487 1488 1490 1491 1492 1493 1495 1496 1498 1500 1501 1504 1506 1508 1510 1511 1514 1516 1517 1518 1520 1522 1523 1525 1525 1526 1527 1528
1477 1478 1478 1479 1479 1479 1480 1481 1481 1481 1482 1483 1484 1485 1485 1486 1487 1487 1488 1489 1490 1492 1493 1495 1496 1497 1499 1501 1503 1505 1507 1508 1510 1512 1514 1515 1517 1518 1520 1521 1522 1523 1524 1526
1476 1476 1476 1477 1477 1478 1479 1479 1480 1480 1481 1482 1483 1484 1484 1485 1485 1486 1487 1488 1489 1490 1491 1492 1494 1495 1496 1498 1499 1501 1503 1505 1507 1509 1511 1513 1514 1516 1517 1518 1519 1521 1522 1523
1474 1475 1475 1476 1477 1477 1477 1478 1478 1479 1480 1480 1481 1481 1482 1483 1484 1484 1485 1486 1486 1487 1489 1490 1491 1492 1493 1495 1497 1498 1500 1502 1504 1506 1508 1510 1511 1513 1514 1515 1516 1518 1519 1520
1472 1473 1474 1474 1475 1475 1476 1477 1477 1478 1478 1479 1479 1479 1480 1480 1481 1483 1482 1483 1483 1485 1486 1487 1488 1490 1491 1492 1494 1496 1497 1499 1501 1503 1505 1506 1507 1509 1510 1511 1513 1514 1515 1516
1471 1471 1472 1472 1473 1473 1474 1475 1476 1476 1477 1477 1478 1478 1478 1479 1480 1481 1481 1481 1482 1483 1483 1484 1485 1487 1488 1490 1491 1493 1494 1496 1497 1499 1500 1502 1503 1505 1506 1508 1509 1510 1511 1512
1469 1470 1470 1470 1471 1472 1472 1473 1474 1475 1475 1476 1476 1477 1477 1477 1478 1478 1479 1480 1480 1480 1481 1482 1483 1484 1485 1487 1487 1489 1490 1492 1494 1495 1496 1497 1499 1500 1502 1503 1505 1506 1507 1509
1468 1468 1469 1469 1469 1469 1470 1471 1472 1473 1473 1474 1474 1475 1475 1475 1475 1475 1476 1477 1477 1478 1479 1479 1480 1481 1482 1483 1484 1485 1487 1488 1489 1491 1492 1493 1494 1496 1497 1499 1500 1502 1503 1504
1467 1467 1468 1468 1468 1468 1469 1470 1471 1471 1471 1472 1472 1472 1472 1472 1472 1473 1473 1474 1475 1475 1476 1476 1477 1478 1479 1480 1481 1482 1483 1484 1486 1487 1488 1489 1491 1492 1493 1495 1496 1497 1499 1500
1466 1466 1467 1467 1467 1467 1467 1467 1468 1469 1469 1469 1469 1470 1470 1470 1470 1471 1471 1471 1472 1472 1473 1474 1475 1476 1477 1477 1478 1479 1480 1481 1483 1484 1485 1486 1487 1488 1489 1491 1492 1494 1495 1496
1466 1465 1465 1466 1466 1466 1466 1465 1466 1466 1466 1467 1467 1468 1468 1468 1469 1469 1469 1470 1470 1471 1471 1472 1473 1474 1474 1475 1476 1476 1477 1478 1480 1481 1481 1483 1484 1485 1486 1487 1489 1490 1492 1493
1464 1464 1465 1465 1465 1465 1464 1464 1464 1464 1465 1465 1466 1466 1466 1467 1467 1467 1468 1468 1468 1469 1469 1470 1471 1471 1472 1473 1473 1474 1474 1475 1476 1478 1479 1480 1481 1482 1483 1485 1486 1487 1489 1490